Home > Weather > Gröbming > Past weeks

Flag for Austria Past Weather in Gröbming, Styria, Austria — Yesterday and Last 2 Weeks

Now
63 °F

Passing clouds.


Feels Like: 63 °F
Forecast: 56 / 84 °F
Wind: No wind

Location: Aigen Im Ennstal

Current Time: Jul 29, 2016 at 11:42:45 PM

Latest Report: Jul 29, 2016 at 11:00 PM


Visibility: 13 mi

Pressure: 30.01 "Hg (27.41 "Hg at 769m altitude)

Humidity: 88%

Dew Point: 60 °F

Location of GröbmingLocation

Past Weather in Gröbming — Graph

°F

Gröbming Temperature Yesterday

Maximum temperature yesterday: 72 °F (at 4:00 PM)
Minimum temperature yesterday: 60 °F (at 6:00 AM)
Average temperature yesterday: 64 °F

High & Low Weather Summary for the Past Weeks

 TemperatureHumidityPressure
High82 °F (Jul 22, 3:00 PM)96% (Jul 21, 5:00 AM)30.31 "Hg (Jul 21, 5:00 AM)
Low49 °F (Jul 15, 7:00 AM)41% (Jul 21, 5:00 PM)29.83 "Hg (Jul 22, 5:00 PM)
Average65 °F76%30.08 "Hg
* Reported Jul 14 10:00 PM — Jul 29 10:00 PM, Gröbming, Weather by CustomWeather, © 2016

Note: Actual official high and low records may vary slightly from our data, if they occured in-between our weather recording intervals... More about our weather records

Advertising

Gröbming Weather History for the Previous 24 Hours

Scroll right to see more
 ConditionsComfort  
Time TempWeatherWind HumidityBarometerVisibility
10:00 PM
Fri, Jul 29
68 °FMild.No wind73%29.99 "HgN/A
9:00 PM69 °FMild.No wind72%29.96 "HgN/A
8:00 PM72 °FPartly sunny.N/A65%29.93 "Hg19 mi
7:00 PM73 °FMild.2 mph61%29.92 "HgN/A
6:00 PM76 °FMild.5 mph56%29.90 "HgN/A
5:00 PM80 °FPassing clouds.N/A47%29.88 "Hg19 mi
4:00 PM79 °FWarm.No wind43%29.90 "HgN/A
3:00 PM76 °FMild.2 mph47%29.93 "HgN/A
2:00 PM74 °FPartly sunny.5 mph51%29.96 "Hg19 mi
1:00 PM72 °FMild.1 mph61%29.98 "HgN/A
12:00 PM69 °FMild.1 mph71%30.01 "HgN/A
11:00 AM66 °FOvercast.N/A73%30.03 "Hg19 mi
10:00 AM65 °FMild.3 mph74%30.05 "HgN/A
9:00 AM61 °FCool.3 mph79%30.07 "HgN/A
8:00 AM60 °FLow clouds.2 mph86%30.07 "Hg12 mi
7:00 AM57 °FCool.1 mph90%30.09 "HgN/A
6:00 AM56 °FCool.1 mph91%30.09 "HgN/A
5:00 AM57 °FPassing clouds.2 mph91%30.07 "Hg9 mi
4:00 AM59 °FCool.2 mph91%30.07 "HgN/A
2:00 AM60 °FLow clouds.N/A88%30.05 "Hg7 mi
1:00 AM61 °FFog.No wind93%30.05 "HgN/A
12:00 AM61 °FCool.1 mph93%30.06 "HgN/A
11:00 PM
Thu, Jul 28
61 °FOvercast.N/A93%30.07 "Hg7 mi
Weather by CustomWeather, © 2016

See weather overviewHow to use our weather pages